GIA89 EHAM-WIII

Flight info

Callsign GIA89
Flight time N/A
Altitude 31000
Route NYKE5W ARNEM L620 OMELO EVIKU ODNEM ERGOM DEGET OSTOV N127 INBOL NIKTI UN127 LMO UL618 MES UN139 KPC UL54 PAXIS L607 NABSI P557 OBRAN L321 REXUM M872 PMA Y214 RAPMA DEGNO DAPOL L692 GISKA N569 UMILA L883 REXOD N563 ISVUR A585 PLB W12E BIDAK
Aircraft B77W/H-SDE1E2E3FGHIJ2J3J4J5M1RWXY/LB1D1

Departure

Time 2026-05-08 07:39
Airport Amsterdam Airport Schiphol (EHAM)

Arrival

Time N/A
Airport Soekarno-Hatta International Airport (WIII)
Time Latitude Longitude Altitude Speed Heading
2026-05-08 06:50 52.31364 4.75799 18 ft 0 kts 267°
2026-05-08 07:25 52.31364 4.75828 18 ft 3 kts 277°
2026-05-08 07:26 52.31360 4.75859 18 ft 3 kts 292°
2026-05-08 07:26 52.31352 4.75887 18 ft 3 kts 309°
2026-05-08 07:26 52.31339 4.75910 18 ft 3 kts 325°
2026-05-08 07:26 52.31324 4.75925 18 ft 3 kts 342°
2026-05-08 07:27 52.31309 4.75932 18 ft 1 kts 355°
2026-05-08 07:27 52.31307 4.75932 18 ft 0 kts 355°
2026-05-08 07:30 52.31309 4.75932 18 ft 1 kts 355°
2026-05-08 07:30 52.31335 4.75929 18 ft 7 kts 356°
2026-05-08 07:31 52.31407 4.75925 18 ft 13 kts 357°
2026-05-08 07:31 52.31497 4.75911 18 ft 11 kts 333°
2026-05-08 07:31 52.31523 4.75770 18 ft 15 kts 267°
2026-05-08 07:31 52.31517 4.75597 18 ft 18 kts 266°
2026-05-08 07:32 52.31509 4.75367 18 ft 22 kts 267°
2026-05-08 07:32 52.31500 4.75086 18 ft 26 kts 266°
2026-05-08 07:32 52.31492 4.74857 18 ft 28 kts 267°
2026-05-08 07:32 52.31482 4.74567 18 ft 22 kts 267°
2026-05-08 07:33 52.31478 4.74440 18 ft 6 kts 266°
2026-05-08 07:33 52.31476 4.74380 18 ft 7 kts 266°
2026-05-08 07:33 52.31471 4.74266 18 ft 12 kts 262°
2026-05-08 07:33 52.31412 4.74150 18 ft 15 kts 198°
2026-05-08 07:34 52.31294 4.74128 18 ft 19 kts 183°
2026-05-08 07:34 52.31150 4.74114 18 ft 22 kts 183°
2026-05-08 07:34 52.30982 4.74099 18 ft 26 kts 183°
2026-05-08 07:34 52.30794 4.74082 18 ft 28 kts 183°
2026-05-08 07:35 52.30603 4.74067 18 ft 21 kts 183°
2026-05-08 07:35 52.30508 4.74058 18 ft 15 kts 182°
2026-05-08 07:35 52.30394 4.74049 18 ft 12 kts 183°
2026-05-08 07:35 52.30347 4.74040 18 ft 4 kts 192°
2026-05-08 07:36 52.30337 4.74036 18 ft 0 kts 194°
2026-05-08 07:36 52.30311 4.74020 18 ft 10 kts 205°
2026-05-08 07:37 52.30228 4.73926 18 ft 15 kts 217°
2026-05-08 07:37 52.30194 4.73803 18 ft 11 kts 288°
2026-05-08 07:37 52.30258 4.73743 18 ft 13 kts 358°
2026-05-08 07:37 52.30345 4.73750 18 ft 12 kts
2026-05-08 07:38 52.30516 4.73767 18 ft 47 kts
2026-05-08 07:38 52.31083 4.73818 18 ft 118 kts
2026-05-08 07:38 52.32160 4.73917 20 ft 183 kts
2026-05-08 07:38 52.33541 4.74050 253 ft 211 kts
2026-05-08 07:39 52.35034 4.74184 1178 ft 207 kts
2026-05-08 07:39 52.36446 4.74675 1921 ft 208 kts 24°
2026-05-08 07:39 52.37674 4.75962 2440 ft 214 kts 43°
2026-05-08 07:39 52.38524 4.78015 2790 ft 221 kts 68°
2026-05-08 07:40 52.38867 4.80581 3107 ft 234 kts 90°
2026-05-08 07:40 52.38622 4.83287 3529 ft 242 kts 107°
2026-05-08 07:40 52.38238 4.85234 3890 ft 246 kts 108°
2026-05-08 07:40 52.37726 4.87938 4255 ft 259 kts 109°
2026-05-08 07:41 52.37161 4.90800 4702 ft 268 kts 109°
2026-05-08 07:41 52.36575 4.93737 5244 ft 274 kts 109°
2026-05-08 07:41 52.36007 4.96572 5768 ft 279 kts 109°
2026-05-08 07:41 52.35358 4.99815 6412 ft 283 kts 109°
2026-05-08 07:42 52.34741 5.02895 7095 ft 284 kts 109°
2026-05-08 07:42 52.34126 5.05964 7721 ft 287 kts 109°
2026-05-08 07:42 52.33495 5.09116 8317 ft 290 kts 109°
2026-05-08 07:42 52.32834 5.12272 8898 ft 293 kts 111°
2026-05-08 07:43 52.32110 5.15427 9467 ft 296 kts 112°
2026-05-08 07:43 52.31365 5.18509 10016 ft 299 kts 113°
2026-05-08 07:43 52.30574 5.21743 10375 ft 311 kts 112°
2026-05-08 07:43 52.29751 5.25124 10585 ft 327 kts 112°
2026-05-08 07:44 52.28890 5.28678 10757 ft 345 kts 112°
2026-05-08 07:44 52.27988 5.32407 10998 ft 360 kts 112°
2026-05-08 07:44 52.26929 5.36789 11412 ft 373 kts 112°
2026-05-08 07:44 52.25894 5.41070 11911 ft 381 kts 112°
2026-05-08 07:45 52.25233 5.43802 12274 ft 384 kts 112°
2026-05-08 07:45 52.24212 5.48023 12843 ft 389 kts 112°
2026-05-08 07:45 52.23213 5.52158 13401 ft 393 kts 112°
2026-05-08 07:45 52.22196 5.56360 13957 ft 397 kts 112°
2026-05-08 07:46 52.21188 5.60543 14514 ft 400 kts 112°
2026-05-08 07:46 52.20174 5.64874 15047 ft 404 kts 112°
2026-05-08 07:46 52.19147 5.69172 15574 ft 407 kts 112°
2026-05-08 07:46 52.18105 5.73454 16085 ft 410 kts 113°
2026-05-08 07:47 52.17042 5.77779 16600 ft 413 kts 113°
2026-05-08 07:47 52.15976 5.82098 17083 ft 417 kts 113°
2026-05-08 07:47 52.14872 5.86561 17572 ft 420 kts 113°
2026-05-08 07:47 52.13775 5.90993 18037 ft 423 kts 113°
2026-05-08 07:48 52.12666 5.95468 18505 ft 426 kts 113°
2026-05-08 07:48 52.11552 5.99964 18969 ft 429 kts 113°
2026-05-08 07:48 52.10456 6.04551 19413 ft 432 kts 110°
2026-05-08 07:48 52.09606 6.09267 19839 ft 436 kts 105°
2026-05-08 07:49 52.08942 6.14102 20262 ft 439 kts 102°
2026-05-08 07:49 52.08388 6.19008 20688 ft 442 kts 101°
2026-05-08 07:49 52.07891 6.23972 21080 ft 446 kts 100°
2026-05-08 07:49 52.07430 6.28902 21480 ft 448 kts 99°
2026-05-08 07:50 52.06999 6.33519 21843 ft 451 kts 100°
2026-05-08 07:50 52.06453 6.38906 22227 ft 454 kts 101°
2026-05-08 07:50 52.05848 6.44520 22645 ft 457 kts 101°
2026-05-08 07:50 52.05305 6.49492 22981 ft 460 kts 101°
2026-05-08 07:51 52.04736 6.54702 23352 ft 462 kts 101°
2026-05-08 07:51 52.04173 6.59855 23699 ft 465 kts 101°
2026-05-08 07:51 52.03597 6.65111 24075 ft 467 kts 101°
2026-05-08 07:51 52.02983 6.70730 24438 ft 469 kts 101°
2026-05-08 07:52 52.02417 6.75890 24806 ft 471 kts 101°
2026-05-08 07:52 52.01750 6.81107 25145 ft 472 kts 104°
2026-05-08 07:52 52.00927 6.86279 25485 ft 473 kts 107°
2026-05-08 07:52 52.00298 6.89890 25707 ft 474 kts 107°
2026-05-08 07:53 51.99346 6.95535 26027 ft 477 kts 106°
2026-05-08 07:53 51.98541 7.00594 26343 ft 479 kts 105°
2026-05-08 07:53 51.97724 7.05833 26648 ft 480 kts 105°
2026-05-08 07:53 51.96880 7.11078 26947 ft 482 kts 106°
2026-05-08 07:54 51.95962 7.16311 27239 ft 483 kts 108°
2026-05-08 07:54 51.94914 7.21819 27537 ft 485 kts 108°
2026-05-08 07:54 51.93989 7.26865 27812 ft 487 kts 108°
2026-05-08 07:54 51.92982 7.32360 28097 ft 488 kts 108°
2026-05-08 07:55 51.92003 7.37595 28360 ft 490 kts 108°
2026-05-08 07:55 51.90998 7.42910 28624 ft 491 kts 108°
2026-05-08 07:55 51.90003 7.48155 28871 ft 492 kts 109°
2026-05-08 07:55 51.88983 7.53517 29099 ft 494 kts 108°
2026-05-08 07:56 51.88076 7.58282 29314 ft 495 kts 109°
2026-05-08 07:56 51.86989 7.63988 29571 ft 496 kts 109°
2026-05-08 07:56 51.85935 7.69522 29918 ft 494 kts 108°
2026-05-08 07:56 51.84999 7.74825 30160 ft 496 kts 106°
2026-05-08 07:57 51.84193 7.80237 30355 ft 497 kts 104°
2026-05-08 07:57 51.83469 7.85773 30640 ft 497 kts 102°
2026-05-08 07:57 51.82790 7.91259 30914 ft 496 kts 103°
2026-05-08 07:57 51.82055 7.96715 31141 ft 496 kts 104°
2026-05-08 07:58 51.81273 8.02110 31169 ft 498 kts 105°
2026-05-08 07:58 51.79560 8.13606 31165 ft 505 kts 105°
2026-05-08 07:59 51.78149 8.23131 31169 ft 509 kts 105°
2026-05-08 07:59 51.77219 8.29421 31169 ft 509 kts 105°
2026-05-08 08:00 51.75026 8.44850 31170 ft 509 kts 104°
2026-05-08 08:00 51.74254 8.50413 31170 ft 509 kts 104°
2026-05-08 08:01 51.71751 8.68130 31171 ft 508 kts 104°
2026-05-08 08:01 51.70097 8.79682 31170 ft 508 kts 104°
2026-05-08 08:02 51.68774 8.88910 31170 ft 508 kts 104°
2026-05-08 08:02 51.67172 9.00723 31172 ft 509 kts 104°
2026-05-08 08:03 51.65335 9.13725 31171 ft 509 kts 104°
2026-05-08 08:03 51.63971 9.23183 31171 ft 509 kts 104°
2026-05-08 08:04 51.62332 9.34446 31171 ft 509 kts 104°
2026-05-08 08:04 51.60732 9.45352 31170 ft 509 kts 104°
2026-05-08 08:05 51.59001 9.57065 31172 ft 509 kts 105°
2026-05-08 08:05 51.57354 9.68124 31170 ft 509 kts 105°
2026-05-08 08:06 51.55664 9.79399 31171 ft 509 kts 105°
2026-05-08 08:06 51.54015 9.90318 31174 ft 509 kts 105°
2026-05-08 08:07 51.52306 10.01601 31174 ft 509 kts 104°
2026-05-08 08:07 51.50677 10.12630 31175 ft 509 kts 105°
2026-05-08 08:08 51.49243 10.21841 31174 ft 510 kts 105°
2026-05-08 08:08 51.47414 10.33464 31178 ft 510 kts 105°
2026-05-08 08:09 51.45644 10.44692 31181 ft 511 kts 105°
2026-05-08 08:09 51.43906 10.55858 31181 ft 511 kts 105°
2026-05-08 08:10 51.42169 10.66976 31185 ft 511 kts 106°
2026-05-08 08:10 51.40415 10.77862 31184 ft 510 kts 106°
2026-05-08 08:11 51.38733 10.88278 31186 ft 510 kts 106°
2026-05-08 08:11 51.36829 11.00202 31189 ft 511 kts 106°
2026-05-08 08:12 51.34900 11.12012 31191 ft 510 kts 106°
2026-05-08 08:12 51.33075 11.23066 31194 ft 510 kts 106°
2026-05-08 08:13 51.31579 11.32195 31193 ft 510 kts 106°
2026-05-08 08:13 51.29685 11.43683 31195 ft 510 kts 106°
2026-05-08 08:14 51.27832 11.54675 31193 ft 511 kts 107°
2026-05-08 08:14 51.26013 11.65627 31192 ft 511 kts 106°
2026-05-08 08:15 51.24159 11.76578 31184 ft 511 kts 107°
2026-05-08 08:15 51.22293 11.87453 31187 ft 511 kts 107°
2026-05-08 08:16 51.20412 11.98460 31181 ft 511 kts 106°
2026-05-08 08:16 51.18532 12.09473 31178 ft 511 kts 107°
2026-05-08 08:17 51.16618 12.20491 31177 ft 511 kts 107°
2026-05-08 08:17 51.14717 12.31539 31172 ft 511 kts 107°
2026-05-08 08:18 51.12796 12.42359 31173 ft 511 kts 108°
2026-05-08 08:18 51.10811 12.53424 31171 ft 512 kts 107°
2026-05-08 08:19 51.08855 12.64323 31171 ft 512 kts 108°
2026-05-08 08:19 51.07202 12.73430 31171 ft 512 kts 108°
2026-05-08 08:20 51.04885 12.86225 31170 ft 511 kts 107°
2026-05-08 08:20 51.02960 12.97171 31170 ft 512 kts 108°
2026-05-08 08:21 51.00947 13.08030 31172 ft 504 kts 108°
2026-05-08 08:21 50.98960 13.18682 31169 ft 499 kts 108°
2026-05-08 08:22 50.97298 13.27585 31169 ft 499 kts 108°
2026-05-08 08:22 50.95351 13.38242 31168 ft 500 kts 107°
2026-05-08 08:23 50.93463 13.48889 31168 ft 501 kts 107°
2026-05-08 08:23 50.91490 13.59498 31168 ft 501 kts 108°
2026-05-08 08:24 50.89454 13.70275 31167 ft 501 kts 108°
2026-05-08 08:24 50.87474 13.80859 31169 ft 500 kts 108°
2026-05-08 08:25 50.85438 13.91411 31163 ft 500 kts 110°
2026-05-08 08:25 50.82257 14.01110 31167 ft 496 kts 129°
2026-05-08 08:26 50.77479 14.09521 31157 ft 493 kts 139°
2026-05-08 08:26 50.72359 14.16716 31153 ft 492 kts 141°
2026-05-08 08:27 50.67213 14.23986 31156 ft 492 kts 140°
2026-05-08 08:27 50.61978 14.31561 31151 ft 491 kts 140°
2026-05-08 08:28 50.57422 14.38053 31139 ft 493 kts 140°
2026-05-08 08:28 50.52344 14.45262 31139 ft 493 kts 141°
2026-05-08 08:29 50.47029 14.52796 31141 ft 492 kts 140°
2026-05-08 08:29 50.42201 14.60351 31138 ft 494 kts 135°
2026-05-08 08:30 50.37505 14.68529 31139 ft 495 kts 134°
2026-05-08 08:30 50.30671 14.80331 31137 ft 495 kts 135°
2026-05-08 08:31 50.25925 14.88376 31132 ft 495 kts 135°
2026-05-08 08:31 50.21254 14.96285 31129 ft 495 kts 135°
2026-05-08 08:32 50.16566 15.04338 31122 ft 494 kts 135°
2026-05-08 08:32 50.11917 15.12219 31117 ft 494 kts 135°
2026-05-08 08:33 50.07928 15.18935 31113 ft 494 kts 135°
2026-05-08 08:33 50.03210 15.26843 31113 ft 494 kts 135°
2026-05-08 08:34 49.98462 15.34774 31111 ft 494 kts 135°
2026-05-08 08:34 49.93778 15.42573 31113 ft 494 kts 135°
2026-05-08 08:35 49.89082 15.50367 31139 ft 494 kts 136°
2026-05-08 08:35 49.84385 15.58138 31141 ft 494 kts 136°
2026-05-08 08:36 49.79513 15.66175 31140 ft 494 kts 136°
2026-05-08 08:36 49.74807 15.73914 31139 ft 494 kts 136°
2026-05-08 08:37 49.70053 15.81706 31135 ft 495 kts 136°
2026-05-08 08:37 49.65316 15.89449 31135 ft 495 kts 136°
2026-05-08 08:38 49.60545 15.97224 31131 ft 495 kts 136°
2026-05-08 08:38 49.55765 16.04988 31122 ft 496 kts 136°
2026-05-08 08:39 49.50998 16.12709 31120 ft 497 kts 136°
2026-05-08 08:39 49.46194 16.20467 31116 ft 497 kts 136°
2026-05-08 08:40 49.41423 16.28146 31116 ft 496 kts 136°
2026-05-08 08:40 49.36616 16.35861 31114 ft 496 kts 136°
2026-05-08 08:41 49.31844 16.43498 31112 ft 496 kts 137°
2026-05-08 08:41 49.27062 16.51127 31113 ft 495 kts 137°
2026-05-08 08:42 49.22400 16.58542 31112 ft 495 kts 137°
2026-05-08 08:42 49.17432 16.66423 31113 ft 495 kts 137°
2026-05-08 08:43 49.13419 16.72769 31113 ft 495 kts 137°
2026-05-08 08:43 49.08617 16.80343 31111 ft 495 kts 137°
2026-05-08 08:44 49.03928 16.87799 31113 ft 495 kts 137°
2026-05-08 08:44 48.98906 16.95669 31111 ft 494 kts 137°
2026-05-08 08:45 48.94450 17.02605 31111 ft 494 kts 137°
2026-05-08 08:45 48.89146 17.10843 31112 ft 495 kts 137°
2026-05-08 08:46 48.84103 17.18670 31099 ft 495 kts 137°
2026-05-08 08:46 48.79278 17.26072 31099 ft 494 kts 138°
2026-05-08 08:47 48.74230 17.33784 31102 ft 495 kts 138°
2026-05-08 08:47 48.70214 17.39903 31093 ft 495 kts 138°
2026-05-08 08:48 48.65362 17.47279 31086 ft 495 kts 138°
2026-05-08 08:48 48.60535 17.54604 31088 ft 495 kts 138°
2026-05-08 08:49 48.55579 17.62242 31084 ft 495 kts 138°
2026-05-08 08:49 48.50761 17.69587 31083 ft 495 kts 138°
2026-05-08 08:50 48.46034 17.76741 31083 ft 495 kts 138°
2026-05-08 08:50 48.40862 17.84538 31082 ft 494 kts 138°
2026-05-08 08:51 48.38429 17.88196 31082 ft 494 kts 138°